User: anonymous   Login
Location: Unspecified
(0.0000°N, 0.0000°E)
Time: 23:51:21
(UTC+00:00)
Language:

HORYU 4 - Orbit

View from above orbital plane
View from above orbital plane
View from above satellite
View from above satellite

Ground track
Ground track

The orbit data is extracted from the following two-line orbital elements,

1 41340U 16012D   21023.32833473  .00000529  00000-0  33022-4 0  9993
2 41340  31.0066  11.3567 0013905 171.7813 188.3053 15.01718889270958
Epoch (UTC): 23 January 2021 07:52:48
Eccentricity: 0.0013905
inclination: 31.0066°
perigee height: 552 km
apogee height: 571 km
right ascension of ascending node: 11.3567°
argument of perigee: 171.7813°
revolutions per day: 15.01718889
mean anomaly at epoch: 188.3053°
orbit number at epoch: 27095

The dashed part of the orbit path shows where the satellite is in the earth's shadow,  

DLR